sat.trackr.live / text

‹ back to catalog

STARLINK-30105

NORAD 57433 · 2023-105D

PAYLOAD ACTIVE UNKNOWN

§ Identity

Operator
Country
US
Launch date
2023-07-24
Launch site
AFETR
Launch vehicle
Mass (kg)
RCS (m²)

Purposes: comms

External: N2YO · Heavens-Above · Gunter

§ Orbital elements

Epoch: 2026-09-20T14:16:09.933024Z

Period
94.27 min
Inclination
43.0033°
Eccentricity
0.0001284
Mean motion
15.27578839 rev/d
Perigee alt
482.2 km
Apogee alt
483.9 km
Semi-major
6,861.2 km
B*
1.4347e-5
RAAN
10.1144°
Arg perigee
275.1912°
Mean anomaly
84.8794°
Rev number
17,813

§ Raw data

STARLINK-301051 57433U 23105D   26263.59455941  .00000133  00000+0  14347-4 0  99932 57433  43.0033  10.1144 0001284 275.1912  84.8794 15.27578839178135

JSON: /api/v1/satellites/57433 · /tle

For live sub-satellite position, see the globe view (requires WebGL).

§ Visibility from observer

Set your observer location to see the next 7 days of passes ≥ 10°. The values pass through the URL so the page stays shareable.

No JS? Fill the form by hand. The geolocation button needs JavaScript.